Other Public Products
Issued by NWS Grand Forks, ND

Home | Current Version | Previous Version | Graphics & Text | Print | Product List | Glossary On
Versions: 1 2 3 4 5 6 7 8 9 10 11 12 13 14 15 16 17 18 19 20 21 22 23 24 25 26 27 28 29 30 31 32 33 34 35 36 37 38 39 40 41 42 43 44 45 46 47 48 49 50
000
FPUS83 KFGF 010231
OPUFGF
PRAIRIE TO PINES WEATHER ROUNDUP
NATIONAL WEATHER SERVICE EASTERN NORTH DAKOTA/GRAND FORKS ND
900 PM CDT THU JUL 31 2014

 **SATELLITE DATA USED TO AUGMENT SKY COVER AT AUTOMATED STATIONS**
 *****  WEATHER ACROSS EASTERN NORTH DAKOTA  *****

CITY           SKY/WX    TMP DP  RH WIND       PRES   REMARKS
GRAND FORKS    PTCLDY    73  67  81 CALM      29.98S
GRAND FORKS AF CLEAR     72  70  93 S2        29.99F
GRAND CITY NWS   N/A     72 N/A N/A MISG        N/A
BUXTON           N/A     76  67  74 E2          N/A
DEVILS LAKE    CLEAR     72  61  68 NE5       30.01S
FARGO          PTCLDY    74  62  66 E3        29.99S
WAHPETON ARPT  CLEAR     70  59  68 CALM      30.01S
$$

 *****  WEATHER ACROSS CENTRAL AND WESTERN NORTH DAKOTA  *****

CITY           SKY/WX    TMP DP  RH WIND       PRES   REMARKS
JAMESTOWN      CLEAR     73  61  65 E3        30.02S
BISMARCK       PTCLDY    76  54  46 E9        30.02F
MINOT          PTCLDY    71  59  65 NE5       30.02S
MINOT AFB      CLEAR     74  62  64 SE6       30.02S
GARRISON         N/A     73  60  63 E5        30.02F
WILLISTON      CLEAR     80  57  45 E12       30.00S
DICKINSON      CLEAR     72  60  66 SE7       30.02S
HETTINGER      CLEAR     77  54  44 E9        30.06R
$$

 *****  OTHER OBSERVATIONS NORTHEAST NORTH DAKOTA  *****

CITY           SKY/WX    TMP DP  RH WIND       PRES   REMARKS
WALHALLA         N/A     68  66  94 CALM        N/A
LANGDON        FAIR      70  63  78 NE3       30.03S
CAVALIER       FAIR      72  63  73 CALM      30.00R
GRAFTON        FAIR      72  64  78 NE3       29.99R
CANDO          FAIR      68  63  83 CALM      30.03S
FORT TOTTEN      N/A     68  59  73 CALM      29.95S
ROLLA          FAIR      66  64  94 CALM      30.05S
RUGBY          FAIR      70  64  83 CALM      30.03R
 ***** THE ABOVE OBSERVATIONS ARE NON NWS ARE NOT QUALITY
        CONTROLLED AND MAY MIS-REPORT RAIN FOR SNOW...
$$

 *****  OTHER OBSERVATIONS SOUTHEAST NORTH DAKOTA *****

CITY           SKY/WX    TMP DP  RH WIND       PRES   REMARKS
COOPERSTOWN    NOT AVBL
VALLEY CITY    FAIR      70  59  68 CALM      30.02S
OAKES          NOT AVBL
GWINNER        CLEAR    N/A N/A N/A CALM      30.03S
SHEYENNE NWR     N/A     74  62  66 CALM      29.95
BUFFALO          N/A     74  54  48 N3          N/A
WYNDMERE       NOT AVBL
 ***** THE ABOVE OBSERVATIONS ARE NON NWS ARE NOT QUALITY
       CONTROLLED AND MAY MIS-REPORT RAIN FOR SNOW...
$$

  *****  WEATHER ACROSS NORTHERN MINNESOTA  *****

CITY           SKY/WX    TMP DP  RH WIND       PRES   REMARKS
FLAG ISLAND    PTCLDY    73  61  64 CALM      29.98R
WARROAD        CLEAR     70  59  68 W3        29.99S
ROSEAU           N/A     68  61  77 NW3       29.99S
HALLOCK        CLEAR     72  64  78 CALM      29.98F
THF RVR FALLS  CLEAR     72  61  68 N3        30.00S
HALSTAD          N/A     71  64  78 S3          N/A
FOSSTON        CLEAR     64  54  68 CALM      30.01S
BAUDETTE       CLEAR     68  58  70 CALM      30.00S
WASKISH        CLEAR     64  61  88 CALM      30.00S
CROOKSTON      CLEAR     75  63  64 CALM      29.99F
$$
  *****  WEATHER ACROSS CENTRAL AND WEST MINNESOTA  *****

CITY           SKY/WX    TMP DP  RH WIND       PRES   REMARKS
BEMIDJI        CLEAR     67  59  76 CALM      30.01S
PARK RAPIDS    CLEAR     70  60  70 NW3       30.01S
WADENA         CLEAR     63  59  88 CALM      30.02R
DETROIT LAKES  CLEAR     70  61  73 CALM      30.03S
MOORHEAD       PTCLDY    73  64  73 CALM      30.00S
FERGUS FALLS   CLEAR     72  57  60 CALM      30.00S
ELBOW LAKE     FAIR      71  65  82 CALM      30.01S
MORRIS MN      CLEAR     70  63  78 CALM      30.01S
STAPLES        CLEAR     68  59  73 CALM      30.01S
WHEATON        CLEAR     68  61  77 CALM      30.03S
$$
  *****  WEATHER ELSEWHERE ACROSS MINNESOTA  *****

CITY           SKY/WX    TMP DP  RH WIND       PRES   REMARKS
DULUTH         CLEAR     70  57  63 NW5       29.99R
INTRNTL FALLS  PTCLDY    61  57  87 CALM      29.98S
ELY            CLEAR     61  54  77 CALM      30.00R
CLOQUET        CLEAR     66  59  77 CALM      29.99S
BRAINERD       MOCLDY    73  61  65 NW6       30.00R
HIBBING        CLEAR     63  59  87 CALM      29.99S
ALEXANDRIA     CLEAR     72  60  66 W5        30.03S
SAINT CLOUD    CLEAR     72  59  63 CALM      30.00R
MINNEAPOLIS    CLEAR     76  55  48 W5        29.99S
$$

  *****  WEATHER ACROSS SOUTH DAKOTA  *****

CITY           SKY/WX    TMP DP  RH WIND       PRES   REMARKS
SIOUX FALLS    PTCLDY    67  60  78 CALM      30.04S
BROOKINGS      NOT AVBL
WATERTOWN      CLEAR     70  56  61 CALM      30.04S
HURON          CLEAR     73  56  54 E3        30.02S
SISSETON         N/A     70  64  81 W3        30.01S
ABERDEEN       CLEAR     69  60  73 CALM      30.03S
MITCHELL       CLEAR     71  64  78 E6        30.03R
PIERRE         CLEAR     76  59  55 E3        30.01R
MOBRIDGE       CLEAR     73  57  57 E7        30.01R
RAPID CITY     PTCLDY    76  57  51 CALM      30.10S
$$

  *****  SOME WEATHER IN NEARBY STATES *****

CITY           SKY/WX    TMP DP  RH WIND       PRES   REMARKS
GLASGOW MT     MOCLDY    85  45  24 SE5       29.96S
GREAT FALLS MT PTCLDY    83  43  24 W3        30.10R
CHEYENNE WY    PTCLDY    67  49  52 SW9G28    30.28R
SCOTTSBLUFF NE CLEAR     76  51  41 E7        30.15R
OMAHA NE       MOCLDY    75  58  55 E8        30.01R
DES MOINES IA  CLOUDY    71  63  75 CALM      30.03F
DAVENPORT IA   CLEAR     72  61  68 SW5       30.04S
CHICAGO IL     PTCLDY    74  56  53 W5        30.02S
EAU CLAIRE WI  MOCLDY    72  61  68 CALM      29.98F
LA CROSSE WI   CLEAR     75  61  61 SW3       30.00R
$$

  *****  SOME NATIONAL WEATHER *****

CITY           SKY/WX    TMP DP  RH WIND       PRES   REMARKS
LA GUARDIA NY  MOCLDY    76  66  71 S5        30.13R
RALEIGH NC     LGT RAIN  73  70  90 CALM      30.15R
ATLANTA GA     LGT RAIN  70  67  90 NE12      30.08R
NEW ORLEANS LA MOCLDY    82  62  50 E5        29.98S
OKLAHOMA CITY  PTCLDY    71  65  81 NE6       30.05S
ALBUQUERQUE NM LGT RAIN  68  57  68 NE5       30.22R
SALT LAKE CITY MOCLDY    82  42  24 W9        30.10S
LOS ANGELES CA PTCLDY    70  61  73 W12       29.86S
BOISE ID       PTSUNNY   86  45  23 E29G36    30.03R
SEATTLE WA     MOSUNNY   83  51  33 N12       30.04S
$$

*** WEATHER ACROSS MANITOBA...SASKATCHEWAN AND ONTARIO ***
                ***ONTARIO***

CITY           SKY/WX    TMP DP  RH WIND       PRES   REMARKS
GERALDTON      LGT RAIN  54  54 100 NW3       29.97R
THUNDER BAY    PTCLDY    64  55  72 E8        29.95R
SIOUX LOOKOUT  MOCLDY    63  55  77 NW3       29.98S
TORONTO        MOCLDY    70  57  64 SW10      30.05R
BIG TROUT LK   CLOUDY    57  50  77 E7        29.99R
PICKLE LAKE    MOCLDY    63  48  59 S3        29.97F
DRYDEN         NOT AVBL
KENORA         MOCLDY    70  54  56 NE2       30.01R
$$
                *** MANITOBA***

CITY           SKY/WX    TMP DP  RH WIND       PRES   REMARKS
BRANDON        CLOUDY    70  63  78 NE6       30.04S
DAUPHIN        CLEAR     70  64  83 W3        30.02S
ISLAND LAKE    PTCLDY    68  50  52 N5        30.03S
PILOT MOUND      N/A    N/A N/A N/A NE5         N/A
THE PAS        CLOUDY   N/A N/A N/A S10         N/A
THOMPSON       MOCLDY    73  57  56 SE5       30.00S
WINNIPEG       MOCLDY    68  57  68 N3        30.00S
LYNN LAKE      CLEAR     72  61  68 VRB2      29.98F
CHURCHILL      CLEAR     64  52  63 SE9       30.02S
GILLAM         CLOUDY    64  52  63 E2        30.03S
$$
                ***SASKATCHEWAN***

CITY           SKY/WX    TMP DP  RH WIND       PRES   REMARKS
ESTEVAN        PTCLDY    72  63  73 E6        30.04S
KINDERSLEY     PTCLDY    75  66  73 E8        30.05
LLOYDMINSTER   PTCLDY    75  63  64 E5        30.06S
PRINCE ALBERT  CLOUDY    73  66  78 E5        30.04S
REGINA         PTCLDY    77  59  53 E12       30.04R


USA.gov is the U.S. government's official web portal to all federal, state and local government web resources and services.